Theta_e
296 294 293 294 293 290 289 289 289 289 287 287 287 286 285 285 281 277 277 278 278 279 281 280 282 283 283 283 283 283 282 283 285 284 284 282 280 283 288 290 292 293 294 294 294 295 294 295 295 294 294 294 295 295 296 295 295 295 295 296 297 296 296 296 296 297 296 296 296 296 296 296 296 295
292 291 290 290 290 287 288 288 288 287 287 286 285 285 284 285 283 280 278 278 279 279 281 282 281 281 282 283 283 282 282 285 285 283 282 282 281 285 287 289 291 292 293 294 293 294 294 294 294 294 294 294 295 296 296 296 296 296 296 297 296 297 296 296 297 296 295 296 295 295 295 295 295 295
291 290 289 288 288 286 287 285 285 285 286 285 284 282 282 283 283 281 279 277 278 279 280 281 282 282 282 283 283 283 283 284 285 283 282 282 284 285 285 287 288 290 291 291 292 293 294 294 294 294 294 295 295 296 296 296 296 296 295 296 296 296 296 296 295 295 295 295 295 295 295 295 295 295
290 289 288 287 286 285 285 284 283 283 283 283 282 282 282 281 282 282 279 278 278 280 280 281 281 281 282 282 282 282 283 284 285 283 282 282 284 282 281 284 287 288 289 291 291 292 292 293 293 293 293 294 294 294 294 295 295 295 295 295 296 296 295 295 295 294 294 294 294 294 294 294 294 294
289 289 287 286 285 285 285 284 284 284 284 282 281 281 281 280 280 281 279 279 278 278 279 281 281 281 281 281 282 281 282 281 282 284 282 282 280 280 279 279 283 285 287 289 290 291 291 292 292 292 292 293 293 294 294 294 294 294 295 295 295 296 295 295 294 294 294 293 294 294 294 293 293 293
288 287 286 285 284 285 285 284 284 283 282 281 280 280 280 280 280 279 278 278 277 277 277 278 280 280 281 280 282 281 281 281 281 281 281 282 281 280 279 278 279 284 286 288 289 290 291 291 292 292 292 292 293 294 295 294 294 295 294 294 294 294 294 294 294 293 293 293 293 293 293 293 293 293
287 286 286 285 284 284 283 283 283 282 280 280 280 279 280 279 279 278 279 278 276 277 277 278 279 279 280 280 280 281 281 282 281 280 280 280 281 281 280 279 279 283 286 288 289 290 290 291 291 292 292 292 292 293 293 293 293 294 294 294 293 293 292 293 292 292 292 292 292 292 292 292 292 292
287 286 285 284 283 283 283 281 281 281 280 280 279 279 279 279 279 279 279 279 278 277 277 277 277 277 278 279 280 280 280 279 280 280 280 280 280 280 280 279 279 282 286 287 288 289 290 290 290 291 291 292 292 292 292 293 293 293 293 292 292 292 291 291 291 291 290 291 291 291 291 291 291 291
286 286 285 283 283 283 282 281 281 280 280 279 279 279 279 279 279 279 279 279 279 278 278 278 279 279 278 278 278 278 278 278 278 278 278 279 278 278 278 278 279 283 285 286 287 288 289 289 290 291 291 291 291 292 291 292 292 291 292 291 290 291 290 290 290 290 290 290 289 290 290 291 290 289
286 285 284 283 282 282 281 281 281 280 279 279 279 279 279 279 279 279 279 279 278 278 278 278 278 278 278 278 278 278 278 277 277 277 277 276 276 276 276 277 278 279 279 278 279 282 284 286 287 289 289 290 290 290 290 290 290 290 290 290 290 289 289 289 289 289 289 289 289 289 289 289 289 289
285 284 283 282 282 281 281 280 280 280 280 280 279 280 279 280 280 279 279 279 279 279 278 278 279 278 278 278 278 278 277 277 277 275 275 276 277 276 276 277 278 278 278 281 284 284 284 285 284 285 287 288 289 289 289 289 289 288 288 288 289 288 288 288 288 288 288 288 288 288 287 287 288 288
283 283 282 281 281 281 281 280 281 281 280 280 280 280 280 280 280 279 279 279 279 279 278 278 278 278 278 278 278 277 277 276 275 276 275 275 276 277 277 276 276 278 277 276 277 280 282 282 283 285 286 287 287 287 287 287 287 287 288 288 288 287 288 288 287 287 287 286 286 287 286 286 286 286
282 281 281 281 280 281 282 283 283 283 283 281 280 280 281 280 280 280 279 279 279 279 279 278 279 278 278 278 277 277 277 277 277 277 276 276 277 277 277 277 276 276 276 276 276 276 277 276 276 277 277 278 281 281 283 284 284 285 286 286 287 287 287 287 286 286 286 286 286 285 286 286 286 286
280 280 280 280 282 282 283 283 284 285 285 284 283 281 281 281 280 280 279 278 279 278 278 278 279 278 278 278 278 278 278 278 278 277 277 276 277 276 276 277 275 275 275 275 276 277 277 276 277 277 277 278 280 278 278 278 280 283 285 286 286 286 286 286 286 286 286 285 285 286 286 285 285 285
279 279 279 280 282 283 283 283 285 285 285 285 285 284 284 284 282 280 279 279 279 278 278 279 279 278 278 279 279 279 279 278 277 277 276 276 276 275 274 273 277 275 276 278 277 277 279 278 277 278 278 278 277 277 276 282 283 284 285 286 286 286 287 286 286 285 285 285 285 285 285 285 284 284
279 279 280 282 282 282 283 283 284 285 285 285 285 285 285 285 284 284 282 280 279 279 278 278 278 279 279 279 280 279 279 278 277 277 277 277 276 276 275 276 276 279 281 278 277 277 279 278 278 277 278 278 278 278 281 284 285 285 286 286 286 285 285 285 285 285 285 285 285 284 284 284 284 284
279 280 281 281 282 283 284 284 284 284 284 285 285 285 285 285 286 286 286 284 282 281 279 278 278 280 279 279 279 279 278 280 278 278 278 278 278 278 277 277 278 279 280 278 277 276 278 278 277 277 278 278 278 278 281 283 284 285 285 285 285 285 285 285 285 284 284 284 284 284 283 283 283 283
280 281 281 281 281 282 283 283 283 283 283 283 283 283 283 283 284 285 286 285 284 283 281 280 279 280 280 279 279 280 281 279 278 278 278 279 278 278 278 278 278 279 280 278 277 275 277 278 277 277 278 279 278 277 280 283 284 284 284 284 284 284 284 284 284 284 283 283 283 283 282 282 282 282
281 282 282 282 282 282 282 282 283 283 283 283 282 282 282 282 282 282 282 282 283 283 283 282 281 281 281 280 280 281 281 280 280 280 279 280 279 279 279 278 279 279 280 279 278 273 276 279 277 276 277 277 277 277 279 281 282 283 283 283 283 283 283 283 284 283 283 282 282 282 281 281 281 281
281 282 282 282 281 281 281 283 285 284 282 281 280 280 280 280 280 280 282 284 284 283 282 282 281 281 281 283 282 283 283 282 282 282 281 279 278 278 276 276 277 276 277 279 277 275 275 277 275 274 276 276 275 276 275 279 281 282 282 282 282 282 282 282 282 282 282 281 281 281 281 281 281 280
281 281 282 282 281 281 281 284 285 285 283 280 279 279 278 278 278 278 280 284 285 285 285 285 285 285 284 285 285 285 285 284 282 279 277 277 278 276 275 275 275 274 276 277 279 276 273 274 274 274 276 275 274 274 274 274 279 281 281 281 281 281 281 281 281 281 281 281 281 281 281 280 279 279
280 281 282 282 281 281 281 285 286 286 283 280 279 278 277 277 277 277 279 280 281 284 284 284 284 284 284 284 284 284 284 283 282 279 276 278 277 275 275 273 274 275 276 276 276 272 272 273 274 272 273 273 273 273 274 275 275 278 278 279 280 280 280 280 280 280 280 280 280 280 279 279 278 275
280 281 282 282 282 282 282 286 287 286 283 280 280 279 278 277 276 276 278 277 276 277 277 278 279 280 281 281 280 281 283 282 280 279 277 277 275 273 273 273 273 271 273 276 275 270 270 270 271 270 267 267 270 273 272 272 273 274 274 274 274 278 279 279 279 279 279 279 278 278 278 278 277 273
280 280 281 282 284 284 286 287 287 286 284 281 280 280 278 276 276 277 277 278 279 279 279 278 278 277 278 279 280 279 278 277 278 277 277 276 275 273 273 273 272 270 271 274 275 269 269 269 267 269 267 265 263 268 270 270 271 272 273 273 272 275 276 276 276 276 276 276 277 277 277 277 276 272
279 279 280 281 285 286 287 287 287 287 285 283 280 279 278 278 279 280 279 281 281 279 278 276 274 274 275 277 277 276 276 275 274 274 275 273 271 271 271 271 270 270 272 273 275 268 266 267 265 267 266 266 266 266 267 269 270 270 271 271 270 271 271 271 271 269 272 273 274 275 275 275 276 274
280 280 280 280 284 286 287 287 287 287 286 284 280 281 283 284 283 280 280 278 276 274 272 271 272 272 272 273 274 272 271 271 271 270 268 270 270 270 271 272 270 268 269 271 273 268 266 264 266 265 265 265 264 266 264 265 268 269 269 269 270 270 270 269 269 269 269 269 269 270 272 275 275 275
281 281 281 281 284 286 286 286 286 286 286 285 282 285 284 283 281 279 275 274 272 271 270 271 270 270 270 272 271 271 269 268 267 267 266 267 267 268 269 270 269 268 268 267 269 267 264 263 266 264 263 264 263 263 264 263 264 267 267 268 268 269 269 269 268 268 268 268 268 272 272 272 273 274
282 281 280 282 285 285 286 286 286 286 284 282 284 284 282 281 278 274 273 271 270 270 270 269 268 268 269 270 268 268 267 267 265 265 266 265 265 264 263 264 266 266 266 265 264 264 263 261 262 263 264 263 262 261 261 264 265 265 265 266 267 267 267 267 267 267 267 268 267 267 267 266 267 267
282 283 284 285 285 286 286 286 285 284 283 284 283 282 280 277 273 271 270 269 268 267 267 267 267 269 269 266 266 266 265 264 265 263 264 263 262 260 261 262 263 263 264 264 262 262 262 262 260 262 261 262 262 262 262 261 263 263 264 263 262 264 265 266 267 266 267 267 266 266 266 266 265 266
285 285 286 286 285 285 284 280 277 277 279 281 281 280 277 272 271 269 268 268 267 266 266 267 265 264 265 265 264 264 263 264 262 261 261 260 260 259 260 259 259 257 258 259 261 262 262 261 262 261 260 261 262 262 263 262 261 262 262 261 262 264 266 266 266 266 266 265 265 266 266 266 265 265
284 284 283 282 281 280 280 279 279 279 280 278 276 274 272 270 268 268 266 265 265 265 264 263 261 262 262 263 262 263 262 259 259 261 261 258 258 260 258 258 257 258 259 256 259 261 261 261 261 261 259 259 261 262 262 262 259 259 260 262 262 260 263 265 265 265 265 265 265 265 265 264 264 265
279 279 281 280 277 277 276 275 273 273 273 273 272 269 269 267 269 271 270 268 264 262 261 261 260 259 259 258 258 259 258 257 258 259 259 259 257 259 257 256 257 257 256 257 256 257 262 260 259 260 261 260 259 260 261 258 258 258 260 262 262 263 263 263 263 264 265 264 263 262 262 263 262 263
277 276 275 274 274 273 273 272 272 271 270 270 269 267 266 264 263 262 262 261 260 259 260 259 259 258 256 257 257 257 256 257 257 257 255 257 255 256 255 255 255 256 256 257 257 257 257 257 259 261 260 260 261 260 258 256 257 259 259 260 260 260 261 263 263 263 263 262 261 260 260 262 262 263
275 274 274 274 273 272 272 271 271 270 270 269 267 265 269 264 262 261 260 259 259 260 260 259 258 257 256 254 255 255 256 255 255 257 261 254 255 254 253 253 254 254 256 256 256 257 258 258 256 257 258 259 259 259 258 256 256 257 259 259 259 258 260 261 261 262 262 261 260 258 258 260 262 263
274 273 272 272 272 272 272 271 271 270 269 268 266 263 262 261 263 261 259 257 259 259 258 257 256 256 255 255 255 254 256 256 254 252 255 254 253 253 253 253 253 255 255 255 255 256 257 257 257 256 255 254 254 253 261 259 256 258 258 258 258 258 258 259 260 260 261 260 260 258 258 259 260 262
272 273 272 272 272 272 271 271 270 269 268 265 264 262 260 259 259 260 257 258 256 256 256 255 255 254 254 253 255 254 255 257 252 253 253 251 252 253 252 253 254 254 253 253 254 255 255 255 256 256 254 254 253 253 254 262 263 259 257 257 258 258 258 258 259 260 260 259 259 258 257 257 259 262
272 272 272 272 272 272 271 269 268 265 265 263 261 262 262 260 259 259 259 260 257 256 255 254 254 254 255 255 255 256 255 253 251 253 253 251 251 252 251 252 253 253 252 253 253 254 253 253 254 255 254 252 251 251 253 257 260 263 257 257 258 258 258 258 259 259 260 259 259 260 260 260 260 262
272 272 272 273 272 271 269 267 266 263 261 261 260 259 260 258 258 257 256 258 256 256 256 253 254 255 252 253 249 250 250 252 252 251 252 251 251 249 250 251 251 251 251 253 253 252 252 252 252 253 253 252 251 252 252 255 256 258 262 261 258 258 259 259 258 258 259 261 261 262 262 260 260 262
272 272 272 272 271 269 267 266 265 263 260 260 259 259 257 257 257 257 256 255 256 253 251 252 251 252 252 250 252 251 250 250 249 250 251 250 251 250 250 251 251 251 250 252 252 251 251 250 251 251 253 254 253 254 254 254 254 256 259 263 260 258 259 259 259 260 260 260 261 262 262 264 265 269
270 269 268 268 265 265 263 262 261 261 261 259 259 257 258 257 255 255 254 255 254 253 252 251 253 254 249 251 250 247 249 249 250 249 250 250 252 252 251 252 251 251 250 251 252 252 250 251 251 251 255 256 256 255 254 254 254 255 255 258 263 262 260 261 260 259 259 261 261 261 260 262 260 262
266 267 263 263 262 261 262 260 260 258 258 256 256 258 255 255 255 254 253 253 255 252 250 250 251 249 248 248 248 250 250 251 250 249 251 251 253 254 254 256 251 250 250 251 250 251 252 251 255 260 257 253 253 252 250 250 251 253 254 255 261 264 265 265 262 261 260 262 261 261 260 260 260 261
263 262 258 258 262 258 259 259 256 257 255 255 255 255 253 253 253 258 257 258 253 252 251 249 247 249 248 246 247 251 250 249 249 250 252 250 249 251 253 252 250 249 249 251 251 252 254 253 255 253 250 251 251 250 249 250 250 252 253 254 256 261 263 264 265 265 263 262 261 260 260 261 262 261
258 258 257 255 255 256 255 257 255 255 254 253 253 253 253 252 252 256 252 251 251 252 251 249 247 248 247 245 246 249 249 249 249 249 249 250 250 249 250 250 250 250 249 251 253 253 253 253 251 251 250 248 250 250 250 251 251 251 252 253 254 256 257 261 263 265 266 266 266 265 263 262 260 258
255 256 254 254 254 254 253 253 253 252 253 253 252 252 253 253 253 253 252 251 250 252 249 249 247 247 247 246 246 246 248 248 248 248 249 250 251 250 249 250 251 250 250 251 251 252 251 251 249 249 249 250 249 249 250 251 251 252 252 253 254 254 254 255 257 260 261 262 264 266 267 268 267 267
253 253 253 251 251 251 251 251 252 252 251 251 251 252 252 252 252 250 249 250 250 249 249 249 248 247 247 248 248 249 249 254 252 250 251 251 250 251 251 251 251 251 251 250 250 251 251 250 250 248 247 248 249 249 251 251 252 252 252 252 252 253 253 254 254 254 254 255 260 265 266 267 267 267
Wind_Speed
7 6 8 9 8 8 7 7 6 7 5 5 8 8 10 8 8 6 7 8 7 4 7 5 5 7 6 6 5 6 6 6 7 5 5 5 6 8 13 14 16 17 17 17 17 17 18 19 20 20 20 20 21 21 21 21 21 21 22 22 23 23 24 25 24 25 25 25 25 25 25 25 26 26
6 6 7 7 8 5 6 7 7 8 8 8 10 8 6 8 10 7 9 7 6 3 3 5 3 4 7 6 5 5 6 7 8 5 5 6 6 10 12 15 17 17 17 17 18 18 19 20 21 21 21 21 22 22 22 21 22 22 23 24 24 23 24 24 25 24 25 25 25 25 26 27 27 27
8 8 8 6 7 6 5 5 5 7 7 9 7 6 5 5 8 10 6 5 2 3 4 5 3 5 6 6 5 4 5 5 6 5 5 7 9 10 10 14 16 17 17 17 18 19 20 21 21 21 21 22 22 22 22 22 22 23 24 25 24 24 24 25 25 24 25 25 25 26 27 28 28 29
8 9 9 9 8 7 7 6 5 3 2 5 6 6 5 4 6 7 5 6 5 2 3 5 4 3 5 5 5 5 3 2 5 5 6 7 7 6 6 10 15 16 17 18 18 19 20 21 22 22 22 22 23 23 23 23 24 24 25 24 24 24 24 24 24 25 25 25 26 27 27 28 29 29
8 9 10 9 7 7 9 7 6 6 5 4 4 4 6 6 5 6 6 8 6 1 1 2 3 3 5 3 4 4 3 3 4 5 6 6 5 6 6 7 11 15 16 17 18 19 20 21 21 22 22 22 23 23 23 24 24 24 24 24 24 24 24 25 24 24 25 26 26 28 28 29 29 29
6 7 8 7 7 6 9 8 6 6 8 7 6 4 7 7 5 3 6 5 6 4 0 3 3 3 2 2 2 5 3 5 4 6 6 5 6 7 7 6 7 13 15 17 18 20 21 21 22 22 22 23 23 23 24 23 24 24 24 24 24 24 25 26 26 26 26 27 27 28 29 29 30 29
8 8 8 8 7 6 8 7 6 5 7 6 7 5 5 8 6 4 6 7 4 7 3 2 3 2 1 3 2 2 4 5 4 5 6 7 6 6 6 6 6 11 15 17 19 20 21 22 22 23 23 23 23 24 24 24 24 24 25 25 25 25 25 26 27 27 27 28 29 28 29 30 29 29
10 10 9 8 8 7 8 8 7 6 7 7 6 6 4 8 7 5 5 4 5 3 6 1 4 2 3 2 2 3 3 5 6 6 6 5 7 7 4 5 7 9 16 18 19 21 22 22 23 23 24 24 24 24 24 24 24 25 26 26 26 26 26 26 27 27 28 29 30 30 30 30 29 29
11 10 11 11 9 9 9 6 7 7 8 7 7 7 6 7 6 5 5 5 4 6 6 3 1 3 1 2 2 2 3 4 4 5 6 7 7 7 5 5 7 11 17 18 19 20 21 22 22 23 24 24 24 24 24 24 24 25 26 27 27 27 27 27 27 28 28 29 30 30 30 30 29 28
10 11 11 11 12 12 13 11 9 8 9 7 8 8 7 7 7 7 5 5 5 5 5 5 2 1 3 0 2 3 3 5 6 6 6 4 5 6 7 5 5 6 5 5 8 11 14 17 21 23 23 24 24 24 24 24 25 26 25 24 25 27 28 28 28 28 29 29 30 30 30 29 29 29
9 9 11 12 12 12 12 13 12 10 10 8 8 9 9 7 8 7 6 6 6 5 5 2 3 3 1 2 3 3 3 4 4 5 7 6 4 5 6 7 3 3 6 9 13 13 14 15 13 16 21 22 22 23 23 24 26 25 25 25 25 27 28 28 29 29 29 29 29 29 28 27 28 28
9 9 10 11 11 11 10 11 10 11 11 9 9 7 8 8 8 6 5 5 4 4 4 3 3 2 2 1 2 2 1 2 3 4 4 8 8 7 4 3 7 5 4 7 7 7 8 10 13 16 18 18 20 22 21 22 23 23 24 24 26 28 29 30 29 28 26 26 26 27 26 26 26 27
8 9 9 10 9 10 11 13 12 10 10 10 9 7 7 7 7 6 5 5 4 4 3 2 2 2 1 2 1 2 3 4 5 3 2 6 6 7 9 4 2 4 6 6 6 6 4 7 6 6 7 7 11 13 17 15 20 20 22 24 27 28 29 28 27 27 27 27 26 26 24 24 25 25
8 10 9 9 11 12 14 14 13 11 11 9 11 11 9 9 8 7 7 6 5 5 4 4 3 2 2 3 2 3 4 3 3 4 4 7 8 8 9 6 1 3 4 8 10 9 2 5 9 8 9 8 9 7 7 8 11 15 21 24 26 27 26 27 28 28 28 26 24 24 24 24 24 23
9 8 9 9 11 13 14 14 16 13 12 10 10 13 12 10 12 9 7 6 6 6 4 3 2 2 3 4 3 4 3 2 2 3 3 5 7 7 9 12 7 3 4 9 10 12 6 5 9 9 9 8 7 6 7 13 18 21 23 25 26 26 27 28 28 26 26 26 25 24 24 24 22 21
10 10 9 8 8 9 11 10 11 12 13 13 13 13 12 10 8 8 6 7 6 5 5 4 3 3 4 3 3 2 1 2 2 2 3 5 6 7 8 8 9 6 6 8 11 13 8 4 7 9 8 7 6 7 10 17 22 24 24 25 27 28 28 28 28 27 25 25 24 24 22 21 20 21
11 10 10 9 7 8 13 11 9 9 9 10 12 11 10 9 8 7 8 7 5 5 5 4 3 4 2 2 3 1 0 2 4 4 4 5 5 6 8 8 8 8 7 8 9 12 10 7 8 9 8 7 6 7 9 16 22 24 25 26 27 27 28 29 29 28 27 26 25 24 22 21 21 22
12 13 13 11 10 9 9 8 9 8 8 8 7 6 5 4 5 6 6 6 8 6 5 5 4 4 3 3 1 2 2 3 4 4 5 5 6 7 8 8 8 7 6 7 9 11 10 7 8 10 9 8 7 6 11 21 23 25 26 26 26 26 27 28 28 27 27 26 24 21 22 22 22 23
12 12 12 13 13 12 10 9 10 10 9 8 7 6 5 4 3 2 2 2 2 3 3 5 4 3 2 2 2 4 4 5 5 4 5 5 6 8 8 7 6 5 5 5 6 11 10 6 8 11 11 10 9 6 8 17 23 24 24 24 25 25 25 25 26 27 26 25 23 23 24 24 23 22
8 9 10 11 11 11 10 12 17 13 9 9 9 7 5 4 3 2 3 4 4 4 3 3 3 2 4 6 4 3 3 3 3 3 3 3 5 7 8 8 5 3 1 2 8 8 7 6 9 10 10 10 10 8 8 12 20 22 23 23 24 25 25 26 26 26 26 25 25 24 24 23 23 23
9 8 9 10 11 10 9 15 17 16 13 8 9 8 6 5 4 2 1 4 6 7 6 5 4 3 2 5 6 6 8 6 4 3 4 5 4 6 6 8 7 5 5 3 4 5 9 6 8 9 9 10 11 10 8 7 13 20 21 24 25 25 25 25 24 25 26 26 23 23 23 23 22 24
8 9 12 11 11 10 9 16 16 16 11 8 8 8 7 6 4 2 2 2 2 4 2 2 1 2 3 5 5 7 7 8 6 4 4 5 4 5 6 8 8 8 5 4 10 7 8 9 9 10 10 13 9 9 9 8 7 16 18 22 25 25 24 25 25 24 24 23 23 23 22 21 21 14
7 7 7 9 9 9 11 18 16 15 9 8 7 7 7 6 4 3 4 4 2 1 2 1 1 2 3 2 1 1 7 12 12 7 5 5 5 5 5 6 8 8 4 7 12 7 8 10 9 10 10 11 12 9 8 8 8 8 10 12 13 21 24 25 23 22 23 23 23 22 21 21 20 11
6 7 7 7 11 12 15 16 16 14 11 7 7 6 6 6 4 4 4 3 4 2 3 2 2 2 1 0 2 6 8 7 8 7 5 4 3 4 5 5 5 6 6 7 13 7 8 8 10 8 7 10 11 12 14 10 11 11 10 11 12 17 19 20 18 20 18 18 19 20 22 22 20 12
9 7 6 5 10 12 14 14 15 15 13 9 6 6 5 5 4 6 4 5 7 4 3 3 1 2 4 6 6 5 4 4 3 4 4 3 3 3 3 5 6 5 5 7 13 6 5 7 8 8 8 8 11 13 12 13 10 10 11 11 14 14 13 10 7 6 9 14 16 20 20 20 21 16
9 8 7 6 10 14 14 14 14 14 13 12 6 6 8 8 9 8 5 4 5 5 5 4 5 6 5 5 5 4 3 3 4 3 3 3 3 3 2 3 5 5 6 6 11 4 6 6 7 8 8 10 12 12 13 12 11 11 11 11 11 12 11 7 6 7 7 7 5 10 14 20 20 21
9 7 7 7 12 14 14 14 14 13 13 10 6 10 10 13 14 8 6 7 6 6 5 5 5 2 4 4 3 3 3 3 3 2 2 2 2 1 1 2 2 2 3 3 3 3 3 3 5 6 8 9 12 12 12 12 12 12 12 11 11 12 12 12 12 11 10 9 7 14 16 17 18 20
8 8 7 9 15 15 15 14 13 13 11 8 12 11 14 13 10 7 7 6 6 6 6 5 4 3 3 4 4 2 2 1 1 2 2 1 3 2 3 4 3 3 1 1 2 2 2 2 4 4 5 7 9 11 14 13 12 12 13 13 12 12 12 12 12 12 9 7 7 8 8 8 8 10
7 10 14 16 16 16 15 16 15 11 11 13 13 14 14 10 6 7 6 7 6 6 5 5 4 5 4 3 2 1 2 3 5 3 4 4 4 4 4 3 3 1 1 1 3 3 2 3 4 4 4 5 7 9 10 12 12 11 12 14 12 11 12 12 10 9 10 9 9 8 8 8 9 10
16 18 18 20 19 16 12 9 6 6 7 13 14 14 11 6 7 5 6 5 6 6 4 5 5 3 2 1 3 3 4 6 3 2 2 1 4 3 3 2 5 3 3 3 4 4 4 4 4 5 5 5 5 8 10 11 11 10 10 10 11 12 9 11 12 11 10 9 9 9 8 8 9 10
12 15 13 10 10 9 12 11 9 8 8 8 7 7 6 6 6 6 5 6 6 6 6 6 4 3 2 2 3 5 5 4 2 1 1 1 2 1 3 0 1 0 3 3 3 3 4 4 4 5 5 7 6 7 7 7 9 9 8 9 10 11 11 11 10 10 9 9 9 9 9 9 9 9
10 10 10 11 7 7 7 7 5 5 5 6 7 5 5 5 6 7 8 7 5 4 5 5 4 3 3 4 3 3 3 2 2 1 4 1 3 3 2 2 2 0 0 0 2 3 2 3 3 4 4 6 7 9 6 4 7 8 8 8 10 9 9 9 8 8 10 10 9 8 9 8 8 8
8 8 8 7 7 7 7 6 6 6 6 6 5 5 5 6 6 4 5 6 6 6 6 5 5 6 5 4 2 3 3 1 2 3 3 3 3 4 3 2 3 5 6 5 2 1 1 3 4 4 5 5 7 8 7 6 6 5 7 9 8 8 8 8 9 10 11 9 8 8 10 8 5 7
9 8 8 7 8 7 7 8 7 7 6 6 6 5 5 6 5 4 4 6 5 4 5 5 6 4 4 3 3 3 2 1 2 3 4 2 2 3 3 3 4 4 4 5 6 6 5 5 3 4 5 5 5 7 6 4 5 5 6 7 7 7 8 8 9 10 9 7 8 10 11 11 7 6
8 8 8 7 7 7 7 7 7 7 7 6 6 6 5 3 5 5 5 4 5 5 5 4 4 4 4 4 2 2 1 1 2 2 2 1 2 2 1 3 4 5 4 5 6 6 6 7 7 7 3 3 6 5 7 3 3 6 6 6 6 8 9 8 8 8 8 7 5 8 10 9 9 8
7 7 8 8 8 8 8 7 7 6 7 7 7 7 6 4 3 6 5 4 5 5 5 4 5 4 4 4 2 1 1 2 1 0 2 2 2 2 2 2 2 4 4 4 5 5 5 6 6 8 10 10 9 10 6 3 5 4 5 7 8 8 9 9 9 8 7 7 6 6 8 10 10 10
8 7 7 8 7 7 7 7 7 7 7 7 7 7 7 6 4 5 4 4 5 5 4 4 4 3 3 2 4 3 2 2 0 0 1 1 1 1 1 3 4 3 4 5 3 4 4 4 5 6 7 8 8 8 11 7 12 7 0 7 9 8 9 9 9 9 7 7 7 5 7 9 11 12
8 7 7 7 7 6 6 6 6 7 6 7 7 5 5 5 5 5 4 5 4 4 4 5 3 3 3 4 2 1 1 0 1 0 1 0 1 3 2 2 5 4 4 5 3 3 3 2 4 4 4 6 8 9 12 11 10 8 10 11 9 10 9 9 9 9 9 6 7 8 8 9 10 10
7 8 8 8 7 7 7 7 7 7 6 7 7 7 6 6 5 5 4 5 5 5 5 4 4 4 4 3 3 3 1 0 1 1 1 1 1 1 2 2 4 4 3 5 5 4 3 3 2 2 3 5 6 8 8 11 13 12 14 18 9 8 9 9 9 8 8 9 8 8 7 8 11 17
6 6 6 6 7 7 7 7 7 7 7 7 6 6 7 7 6 6 5 6 5 4 6 5 3 3 3 3 3 3 1 2 2 1 1 1 1 1 1 2 3 3 4 5 5 5 4 4 3 3 4 5 6 7 7 9 9 8 8 9 13 11 10 9 9 9 9 8 9 9 10 8 8 7
6 7 7 7 7 7 7 7 6 6 6 6 5 5 6 6 6 6 6 5 6 5 5 4 5 5 6 4 3 3 2 1 1 1 1 1 2 3 4 5 3 2 3 6 4 5 5 4 5 11 8 5 5 5 4 5 8 10 10 10 13 17 17 14 10 9 9 10 9 7 8 9 9 8
7 7 6 6 7 7 6 6 6 6 6 6 6 7 5 4 5 6 6 6 6 5 6 6 4 4 4 4 4 4 3 3 2 2 2 1 2 2 4 1 3 4 2 6 6 7 6 3 5 4 4 4 4 4 5 6 8 10 10 10 9 12 16 18 19 16 11 9 8 8 7 7 6 7
5 6 7 5 3 5 5 6 6 6 7 5 6 5 6 5 4 5 5 6 6 6 7 6 5 5 5 4 4 4 5 3 3 3 2 2 2 3 4 4 3 4 4 5 6 5 5 5 3 5 5 2 2 1 6 7 7 8 9 9 11 10 10 14 15 18 18 17 13 10 8 8 8 8
6 6 4 5 6 6 6 6 6 5 6 6 6 6 7 7 7 7 7 7 7 7 7 7 7 5 6 5 4 4 4 4 3 3 4 3 2 2 2 4 3 4 4 4 6 6 5 5 3 3 4 6 3 3 6 6 8 8 7 8 8 9 11 10 10 12 13 12 15 16 17 16 14 15
5 5 6 5 5 5 5 5 6 6 6 6 6 6 6 5 6 6 6 6 7 6 6 6 6 4 5 5 5 5 4 4 3 2 1 1 2 2 1 2 3 4 5 4 5 7 6 5 4 2 3 4 3 3 7 6 8 8 8 8 10 8 8 8 10 11 11 11 14 19 18 18 17 17
Wind_Direction
192 187 188 197 193 198 185 188 176 180 171 172 172 175 171 169 143 166 186 218 211 241 190 193 225 194 200 199 191 196 212 215 211 212 215 228 238 247 255 263 270 272 273 276 279 282 283 283 284 285 286 286 285 284 284 285 287 287 288 287 286 288 292 294 294 293 292 293 294 295 294 294 294 295
172 167 169 172 179 176 173 184 177 173 176 170 179 185 189 161 156 160 174 208 193 215 190 193 199 191 201 189 196 198 217 217 213 214 221 231 241 250 256 264 271 274 278 283 286 287 286 285 286 287 288 286 284 283 283 284 285 287 287 287 286 286 289 290 291 292 291 291 293 292 292 292 293 293
161 166 172 167 163 158 158 147 158 170 165 174 170 175 165 173 149 154 141 122 231 150 174 210 184 170 192 184 187 203 222 218 211 220 230 239 245 251 259 263 269 273 277 280 283 285 286 286 288 290 289 287 285 284 285 285 284 284 284 284 284 283 285 289 292 293 291 291 289 290 292 294 294 295
171 164 167 170 163 152 134 128 123 123 127 146 151 157 154 143 148 142 129 122 152 209 194 183 171 146 158 166 182 215 234 220 221 229 236 245 249 254 258 264 267 271 274 278 282 285 288 290 290 289 288 286 285 285 284 283 281 281 281 281 280 280 284 288 288 289 288 288 290 292 294 294 293 293
167 170 164 164 157 149 140 143 133 131 132 123 124 138 129 125 139 129 115 125 124 34 15 94 122 124 125 147 182 210 229 254 243 232 246 253 251 251 251 258 264 267 272 277 280 284 287 288 287 286 286 284 282 281 278 277 276 276 277 278 279 281 284 286 286 286 290 291 291 292 292 292 292 293
167 155 150 152 150 155 141 141 144 144 140 139 133 139 128 123 115 121 111 123 124 151 85 64 73 80 118 110 161 188 223 252 249 250 251 254 243 249 249 249 261 267 272 275 278 281 283 284 284 283 282 281 280 278 277 276 275 275 277 279 281 285 287 289 291 292 292 291 290 292 293 293 293 292
157 153 156 156 151 143 137 142 139 136 135 137 131 136 128 115 114 97 119 123 117 146 153 139 105 104 80 153 208 209 228 248 247 256 254 246 253 244 243 252 260 266 267 271 275 278 279 279 279 279 279 278 278 277 277 277 277 277 279 282 288 290 290 291 292 292 292 292 292 293 293 293 291 291
163 160 150 155 153 148 140 142 140 141 134 127 124 120 105 104 103 101 96 107 125 146 143 177 130 150 123 262 239 250 244 244 259 241 262 262 258 261 252 245 260 263 266 270 273 275 277 277 277 278 278 278 279 279 279 280 281 282 284 287 290 292 293 294 295 296 295 292 292 293 293 291 290 290
162 160 160 155 152 149 141 145 148 156 139 138 132 128 120 108 107 96 102 103 105 132 152 151 97 134 175 206 240 242 257 273 255 257 252 257 264 274 251 242 254 262 269 271 274 274 275 276 277 278 279 281 282 283 284 285 285 285 287 289 290 292 293 295 296 294 293 292 292 292 292 292 292 296
166 161 158 159 159 160 158 161 157 151 140 133 131 127 122 119 115 115 113 114 119 119 133 143 141 183 178 231 233 236 222 251 279 277 264 262 260 263 275 247 245 262 263 265 270 274 274 276 275 278 281 284 286 288 288 289 288 287 287 287 289 292 295 296 296 296 295 295 295 295 294 295 298 300
164 161 159 162 166 167 163 158 159 150 142 140 139 139 134 132 129 132 139 139 132 137 134 144 170 175 245 178 253 262 231 257 253 269 293 282 230 246 265 291 256 233 263 264 265 267 269 270 272 271 275 279 284 285 287 287 288 289 288 288 289 293 295 297 297 297 296 297 296 295 292 294 295 297
160 159 161 166 170 169 163 156 153 151 144 141 137 144 134 137 137 142 144 139 141 142 145 165 161 152 154 246 232 253 295 281 283 235 244 288 303 296 274 243 296 290 259 279 281 279 289 292 290 291 292 294 293 292 292 293 293 290 287 286 288 294 296 297 297 296 296 296 295 293 292 291 296 297
155 156 163 167 168 162 156 155 151 151 146 143 143 153 145 146 145 143 148 149 146 147 149 161 140 137 174 227 234 299 255 251 265 271 282 287 296 304 308 313 208 252 285 293 301 302 297 292 282 277 285 282 288 286 287 288 290 287 287 287 291 294 297 296 293 293 295 293 289 290 292 297 298 302
157 158 159 162 156 149 150 152 153 153 157 155 151 159 157 154 149 153 153 158 160 149 161 183 153 151 180 220 214 216 240 253 284 302 304 303 312 316 303 304 158 281 338 329 314 302 292 290 293 288 287 290 288 277 281 270 272 275 279 289 296 296 295 293 296 298 298 299 296 292 294 295 297 303
157 158 156 152 152 151 154 156 153 150 148 150 150 156 163 163 156 153 155 163 159 157 166 160 150 144 182 227 211 225 243 262 279 296 309 306 314 317 324 318 339 134 32 316 306 302 305 285 293 298 295 292 283 272 269 271 276 286 297 301 299 298 299 299 300 301 303 303 302 301 300 301 304 306
155 153 149 147 152 160 157 150 148 147 151 154 156 160 164 165 159 152 147 152 153 162 151 156 173 148 211 211 225 250 250 280 335 302 306 296 301 306 304 306 307 332 352 318 309 299 310 305 292 295 298 298 290 287 284 294 304 307 306 306 304 304 303 302 303 303 301 300 299 300 300 302 309 310
155 154 150 148 152 153 150 146 146 145 146 147 149 150 151 154 150 133 110 115 137 149 137 142 178 197 182 201 247 211 139 346 313 299 292 292 290 291 291 294 309 322 331 311 299 297 308 318 303 298 298 298 299 305 305 304 308 310 310 310 309 307 307 307 307 306 305 304 305 306 309 317 317 314
160 161 156 151 150 152 149 145 146 146 144 146 143 148 152 154 164 159 151 140 137 142 147 158 193 223 162 212 206 271 297 289 281 293 298 307 298 296 290 294 294 297 296 288 293 291 302 317 311 307 308 309 307 309 305 310 312 311 311 310 309 308 308 308 307 308 309 308 307 308 313 319 319 318
164 162 161 155 152 152 152 158 156 150 154 151 150 149 149 150 149 144 139 140 144 166 167 181 207 209 195 202 227 245 250 246 251 258 264 274 283 281 281 274 262 271 248 250 281 289 302 327 316 308 308 310 307 312 307 309 309 310 311 310 309 309 309 310 311 312 311 309 309 312 315 319 322 324
155 158 154 148 148 152 155 166 164 159 150 146 144 143 138 135 136 153 170 173 176 173 182 188 187 195 207 218 227 232 231 231 248 251 273 292 285 289 290 291 301 288 219 265 278 282 294 320 308 306 306 307 307 313 308 302 305 311 312 311 312 311 310 310 309 309 309 309 313 316 320 324 324 322
150 156 156 149 150 152 159 168 167 161 148 138 141 140 140 142 141 173 204 209 219 219 219 216 215 241 299 331 328 324 318 319 324 346 318 280 285 289 292 301 310 310 327 289 313 318 308 330 330 317 313 313 308 310 307 305 302 313 316 315 313 310 309 308 308 307 306 310 317 318 318 318 319 320
151 158 158 153 151 157 163 171 167 160 144 138 142 141 139 144 150 185 176 183 231 232 214 228 254 291 320 336 338 344 347 330 327 306 307 340 348 328 321 315 324 323 335 32 11 346 326 336 335 325 321 310 301 307 308 316 326 320 313 312 310 310 308 306 306 306 308 313 315 315 316 318 319 321
144 147 150 149 154 157 165 170 166 158 145 137 148 145 138 143 156 190 168 173 171 95 79 8 70 348 308 274 243 289 5 37 43 38 33 8 14 345 332 325 324 323 343 36 23 354 332 339 338 340 326 312 308 310 320 324 312 313 313 311 310 310 309 308 309 310 311 312 312 314 316 318 319 316
140 143 146 157 161 156 160 164 163 157 148 139 140 135 134 142 180 190 169 175 147 159 151 167 140 186 214 165 56 55 64 51 38 41 26 23 12 358 340 334 328 309 321 4 13 358 329 341 328 342 332 319 314 322 318 322 326 322 324 321 316 318 318 318 317 316 314 313 315 315 315 315 314 309
149 150 152 155 157 149 153 159 162 158 148 139 133 139 148 165 182 145 130 132 128 113 102 98 95 80 59 68 86 83 69 64 53 35 24 24 35 36 2 336 317 300 327 4 357 23 333 335 318 333 320 308 299 307 311 312 320 326 326 329 322 319 320 321 331 332 332 327 325 320 316 309 305 308
153 156 155 155 156 150 155 157 157 157 153 145 137 155 168 187 132 121 123 116 97 97 106 100 85 80 77 85 91 83 66 58 45 31 22 9 28 21 12 345 329 319 329 351 359 12 336 327 331 325 318 316 310 309 310 311 315 323 323 318 321 321 324 329 322 321 323 317 319 314 304 308 314 315
154 148 149 149 157 155 156 156 155 155 158 155 157 173 151 122 118 117 106 106 103 111 114 102 93 84 115 106 103 88 81 45 38 27 3 24 49 19 2 353 343 325 306 5 30 24 358 303 322 322 319 318 311 312 308 313 319 325 319 320 322 325 323 321 318 315 312 308 312 318 318 315 314 314
149 146 146 155 161 158 158 156 158 153 140 142 159 145 123 120 113 113 114 115 128 126 115 115 141 168 134 108 93 83 95 80 28 17 7 26 3 34 357 335 332 318 349 26 12 357 343 313 309 313 320 315 310 310 309 309 312 317 319 324 326 323 320 317 309 300 296 311 319 312 307 310 314 318
144 145 147 152 158 158 157 157 151 136 142 144 139 133 125 120 119 121 134 136 127 124 142 160 144 111 97 120 133 145 107 61 45 45 359 12 3 21 359 341 318 305 328 359 16 346 358 335 323 317 325 310 302 299 301 301 310 320 328 323 319 324 317 314 311 309 317 317 313 318 320 322 318 320
137 140 143 147 149 149 146 133 125 126 130 135 136 132 123 121 133 142 132 134 133 159 144 124 112 124 121 72 66 69 70 66 58 59 7 34 347 12 346 8 326 331 356 21 15 11 11 8 345 332 317 304 297 295 297 311 315 320 316 314 310 308 311 323 323 320 317 317 321 324 321 319 316 314
132 136 137 136 129 127 130 130 128 124 129 126 117 116 125 137 137 134 143 143 137 132 121 119 126 129 120 99 62 56 67 62 15 36 30 60 346 3 326 48 276 15 322 350 14 22 16 351 336 324 318 304 300 291 301 306 304 309 313 314 324 328 328 326 327 323 320 320 327 327 316 310 310 311
127 125 123 121 112 116 109 113 111 113 117 124 131 138 128 118 108 104 97 86 95 110 122 123 104 74 68 76 85 72 78 77 16 18 36 55 360 341 10 14 334 284 231 298 10 330 10 331 321 310 306 299 299 299 298 295 290 300 312 325 329 325 328 330 328 327 331 334 329 317 307 310 310 315
114 112 113 121 124 130 134 135 142 143 136 134 129 118 106 104 109 116 118 121 128 147 124 115 113 110 96 95 91 100 68 48 28 346 48 360 68 344 28 21 324 340 342 335 356 324 330 311 303 297 287 287 283 286 297 306 301 305 323 324 323 320 322 325 327 327 332 329 323 313 309 306 293 308
128 134 138 146 147 148 151 153 157 159 156 145 133 135 128 120 107 103 106 119 136 112 104 115 107 120 112 104 103 86 102 357 15 349 53 357 359 40 357 3 330 324 334 328 331 334 336 327 315 298 284 280 276 269 263 265 289 314 321 314 314 316 318 323 322 324 322 317 314 314 310 311 315 309
138 147 150 154 154 157 157 161 164 161 155 155 144 142 135 132 130 126 124 140 123 113 111 103 110 116 119 123 121 106 118 106 350 6 4 53 10 19 4 355 330 334 339 332 332 332 340 335 340 337 320 305 313 285 248 205 19 318 316 307 313 318 317 319 315 313 312 307 309 302 301 301 310 312
152 155 154 160 165 163 164 168 164 161 158 159 154 146 137 144 147 141 146 153 122 119 113 117 118 117 121 128 126 131 124 109 49 23 350 3 9 343 355 334 325 318 325 321 319 326 344 340 349 349 347 343 349 337 342 105 347 321 319 312 320 317 313 314 309 304 303 302 296 295 299 307 308 316
153 161 161 163 166 168 168 166 166 168 163 161 163 162 156 160 167 149 141 120 114 125 139 126 127 131 128 130 123 115 108 116 73 325 338 325 345 9 5 327 323 316 326 308 318 320 350 350 348 353 345 337 338 323 299 310 328 341 113 325 317 317 315 309 312 310 310 297 294 293 301 312 315 310
160 159 162 165 170 165 162 164 159 161 164 160 158 154 150 145 141 140 122 113 127 124 122 125 136 134 141 141 123 106 108 113 137 62 285 322 6 336 312 301 307 308 300 297 319 324 337 342 349 355 358 331 319 320 319 322 328 313 331 332 316 315 312 309 310 309 311 312 311 315 311 301 298 291
157 162 165 169 169 166 169 173 168 167 164 158 157 155 148 143 140 137 134 138 136 127 124 131 144 159 156 156 150 150 151 91 359 282 276 295 267 266 298 303 310 303 329 320 322 322 348 341 329 332 317 310 307 305 307 308 300 299 313 317 314 306 311 310 303 311 315 315 311 300 285 273 278 295
161 153 158 156 168 164 166 162 166 164 165 169 158 154 146 154 154 149 148 150 147 154 146 162 170 149 151 163 140 119 137 164 191 213 230 256 275 264 271 277 280 303 331 313 318 314 327 308 300 285 291 292 286 284 274 271 272 283 287 298 316 320 312 315 316 316 309 312 307 304 309 310 309 297
154 163 173 164 161 166 162 170 163 157 156 147 141 147 141 147 149 165 163 163 155 153 163 174 167 163 180 166 166 157 179 231 198 217 220 237 264 264 284 306 310 326 328 302 299 301 295 271 279 306 315 301 292 309 328 329 313 314 318 314 322 325 327 327 319 314 310 315 310 307 308 311 307 310
160 162 162 164 162 167 154 152 151 143 140 144 144 143 143 148 161 165 166 165 163 173 169 174 182 171 185 181 176 164 171 199 216 245 229 227 265 293 295 293 291 298 309 294 291 285 286 315 314 317 307 317 328 350 309 299 297 305 306 310 308 319 325 326 329 326 320 314 317 311 307 303 313 309
143 146 157 157 133 141 143 141 143 140 141 136 138 140 141 150 165 168 164 168 178 177 186 193 186 179 190 186 183 176 174 207 203 212 231 247 248 263 283 283 272 269 263 272 283 286 297 313 321 322 318 328 288 257 289 292 289 292 303 312 317 322 317 323 323 324 325 323 322 325 326 326 325 321
139 137 137 142 140 137 132 133 133 132 140 145 147 147 157 163 181 188 184 184 181 192 194 190 189 181 191 194 174 173 180 200 202 199 230 246 243 243 252 271 284 289 291 290 301 302 306 312 303 311 320 308 295 302 295 300 300 298 297 301 308 318 320 323 322 325 326 327 336 344 339 334 326 323
128 133 135 131 130 127 131 132 138 137 137 140 145 162 173 179 189 192 199 193 195 192 185 190 188 195 188 181 166 208 227 202 196 205 210 226 248 272 282 285 295 298 295 293 308 303 314 314 308 318 268 275 272 275 282 280 287 299 304 310 311 315 316 324 331 334 332 323 322 334 341 339 337 337